[[{"header":{"parameterUnit":"m.s-1","parameterCategory":1,"la1":30.2991,"la2":30.254,"lo1":-89.0895,"lo2":-89.0444,"dy":0.0017,"dx":0.0017,"nx":28,"ny":28,"refTime":"2023-10-02T09:00:00:Z","depth":0,"parameterNumber":2,"parameterNumberName":"U-component_of_WINDS"},"data":[0,0,0,0,0,0,0,0,0,0,0,0,0,0,0,0,0,0,0,0,0,0,0,0,0,0,0,0,0,0,0,0,0,0,0,0,0,0,0,0,0,0,0,0,0,0,0,0,0,0,0,0,0,0,0,0,0,0,-6.4977,-6.4977,0,-6.494,-6.4939,-6.4939,-6.4759,-6.4755,-6.4751,-6.4747,-6.471,-6.4713,-6.4716,0,0,0,0,0,0,0,0,0,0,0,0,0,-6.4897,-6.4899,-6.4977,-6.4977,-6.4976,-6.494,-6.4939,-6.4939,-6.476,-6.4755,-6.475,-6.4745,-6.4709,-6.4713,-6.4716,0,0,0,0,0,0,0,0,0,0,0,0,0,-6.4903,-6.49,-6.4977,-6.4883,-6.4874,-6.494,-6.4939,-6.4939,-6.4761,-6.4755,-6.4748,-6.4742,-6.4708,-6.4712,-6.4717,-6.4872,0,0,-6.4731,-6.4732,0,0,0,0,0,0,0,0,-6.4903,-6.4906,-6.4897,-6.4889,-6.488,-6.4848,-6.4897,-6.4916,-6.4763,-6.4804,-6.4747,-6.4739,-6.4761,-6.4761,-6.4768,-6.487,-6.4868,-6.4731,-6.4734,-6.4736,-6.4737,0,0,0,0,0,0,0,-6.4903,-6.4907,-6.4962,-6.4897,-6.4887,-6.4843,-6.4837,-6.49,-6.4819,-6.48,-6.4787,-6.4785,-6.4755,-6.4764,-6.4766,-6.4868,-6.4731,-6.4735,-6.4738,-6.4739,-6.5097,-6.5104,0,0,0,0,0,0,-6.4915,-6.4907,-6.4964,-6.4961,-6.4876,-6.485,-6.4843,-6.4864,-6.4818,-6.4804,-6.479,-6.4777,-6.476,-6.4761,-6.4764,-6.4943,-6.4735,-6.474,-6.4742,-6.509,-6.5099,-6.5106,0,0,0,0,0,0,-6.4914,-6.4922,-6.4965,-6.4931,-6.4933,-6.4858,-6.4884,-6.4867,-6.4875,-6.481,-6.4795,-6.4814,-6.4755,-6.4757,-6.4846,-6.4939,-6.4742,-6.4746,-6.5082,-6.5093,-6.5102,-6.5303,0,0,0,0,0,0,-6.4913,-6.4923,-6.498,-6.4933,-6.4936,-6.5048,-6.4889,-6.4871,-6.4884,-6.4865,-6.4829,-6.4816,-6.475,-6.4841,-6.4851,-6.4942,-6.4749,-6.5074,-6.5087,-6.5099,-6.5288,-6.5319,-6.5346,0,0,0,0,0,-6.491,-6.5038,-6.4984,-6.4992,-6.5006,-6.5054,-6.5055,-6.4975,-6.4892,-6.4949,-6.4908,-6.4818,-6.4928,-6.4851,-6.4861,-6.4955,-6.5067,-6.5083,-6.5098,-6.5275,-6.5313,-6.5345,0,0,0,0,0,0,-6.5097,-6.503,-6.4969,-6.5085,-6.5077,-6.5024,-6.5094,-6.5018,-6.5033,-6.5016,-6.4916,-6.491,-6.5014,-6.4993,-6.4909,-6.5103,-6.4982,-6.5,-6.5113,-6.5149,-6.5177,-6.5181,-6.4753,0,0,0,0,0,-6.5152,-6.5197,-6.5135,-6.5244,-6.5243,-6.517,-6.5188,-6.5127,-6.5114,-6.511,-6.5074,-6.5066,-6.5099,-6.5122,-6.5149,-6.5284,-6.5274,-6.5353,-6.5382,-6.5406,-6.5424,-6.5495,-6.553,-6.5156,-6.5156,-6.5156,0,0,-6.5266,-6.5234,-6.5268,-6.5281,-6.5267,-6.5316,-6.5168,-6.5225,-6.5261,-6.5119,-6.5201,-6.5175,-6.5159,-6.5273,-6.5321,-6.5259,-6.5525,-6.5426,-6.5446,-6.5449,-6.5515,-6.555,-6.5582,-6.5167,-6.5165,-6.5163,0,0,-6.5498,-6.5478,-6.5567,-6.5557,-6.5538,-6.5489,-6.5511,-6.5469,-6.5447,-6.5527,-6.5422,-6.5464,-6.5521,-6.5515,-6.552,-6.5752,-6.5671,-6.5764,-6.5915,-6.5986,-6.6016,-6.6041,-6.6126,-6.6157,-6.5781,-6.5781,-6.5782,0,-6.5642,-6.5711,-6.5623,-6.5688,-6.5698,-6.5571,-6.5661,-6.5655,-6.5647,-6.5657,-6.5586,-6.5658,-6.5638,-6.5749,-6.5806,-6.5814,-6.5837,-6.5768,-6.6018,-6.6043,-6.6066,-6.6145,-6.6177,-6.5793,-6.5791,-6.579,-6.5789,0,-6.5889,-6.5939,-6.6014,-6.6009,-6.6026,-6.6104,-6.6029,-6.6057,-6.5996,-6.5955,-6.604,-6.6012,-6.6032,-6.6053,-6.5993,-6.6157,-6.6119,-6.6036,-6.5912,-6.6115,-6.6188,-6.6217,-6.5809,-6.5805,-6.5802,-6.5799,0,0,-6.6238,-6.6184,-6.6213,-6.621,-6.6181,-6.6218,-6.6291,-6.631,-6.6337,-6.6336,-6.6395,-6.6448,-6.6371,-6.6376,-6.6315,-6.6378,-6.6566,-6.6286,-6.6284,-6.6341,-6.6747,-6.6811,-6.6847,-6.6512,-6.6517,-6.6521,-6.6748,0,-6.6461,-6.6582,-6.6506,-6.6639,-6.6685,-6.6566,-6.6629,-6.6619,-6.6583,-6.6618,-6.6577,-6.6617,-6.6511,-6.6514,-6.6571,-6.6531,-6.6647,-6.6514,-6.6568,-6.6571,-6.6576,-6.6885,-6.6953,-6.7168,-6.6776,-6.6781,-6.6784,0,-6.6737,-6.6749,-6.6887,-6.685,-6.6867,-6.6925,-6.6937,-6.6971,-6.6958,-6.6927,-6.6935,-6.6858,-6.6928,-6.6807,-6.6903,-6.6814,-6.6832,-6.6816,-6.6823,-6.6825,-6.6691,-6.6898,-6.7235,-6.7268,-6.6828,-6.6825,-6.6822,0,-6.698,-6.703,-6.7119,-6.712,-6.7079,-6.7123,-6.7108,-6.7088,-6.7105,-6.7116,-6.7126,-6.7146,-6.7157,-6.7174,-6.7106,-6.7023,-6.7212,-6.7084,-6.719,-6.7193,-6.7236,-6.7234,-6.7582,-6.7246,-6.7246,-6.7245,-6.7244,0,-6.7238,-6.7328,-6.7227,-6.7283,-6.738,-6.7292,-6.7391,-6.7364,-6.7348,-6.7396,-6.7295,-6.7343,-6.7249,-6.7288,-6.7235,-6.7324,-6.7329,-6.7307,-6.7293,-6.7317,-6.7321,-6.7328,-6.7312,-6.7253,-6.7252,-6.725,-6.7248,0,-6.7525,-6.7462,-6.7552,-6.7506,-6.7497,-6.7571,-6.7532,-6.7582,-6.7539,-6.7602,-6.7612,-6.7546,-6.7587,-6.752,-6.7553,-6.7517,-6.7642,-6.7603,-6.7647,-6.7636,-6.7746,-6.7738,-6.8112,-6.8158,-6.7792,-6.7795,-6.7798,0,-6.7695,-6.7761,-6.7723,-6.7748,-6.7739,-6.7781,-6.7798,-6.7714,-6.7737,-6.7728,-6.7779,-6.7812,-6.7833,-6.7904,-6.786,-6.7885,-6.7847,-6.7977,-6.785,-6.7874,-6.7851,-6.7848,-6.7855,-6.8003,-6.8007,-6.8011,-6.8014,0,-6.8003,-6.7968,-6.7996,-6.8015,-6.8038,-6.8048,-6.8051,-6.8078,-6.799,-6.802,-6.8061,-6.8078,-6.8112,-6.8146,-6.816,-6.8146,-6.8067,-6.8054,-6.808,-6.8107,-6.813,-6.8121,-6.7719,-6.8046,-6.8043,-6.804,-6.8039,-6.8037,-6.8237,-6.8291,-6.8273,-6.8308,-6.8302,-6.8308,-6.8353,-6.8316,-6.8349,-6.837,-6.8319,-6.8372,-6.8359,-6.837,-6.8365,-6.8406,-6.8349,-6.8387,-6.8396,-6.8407,-6.8426,-6.8123,-6.8408,-6.8407,-6.8406,-6.8405,-6.8405,0,-6.8541,-6.8524,-6.8557,-6.8565,-6.8594,-6.8516,-6.8515,-6.8545,-6.8593,-6.8587,-6.8611,-6.8659,-6.8692,-6.8651,-6.8677,-6.8718,-6.8683,-6.8728,-6.8725,-6.8723,-6.8474,-6.845,-6.8756,-6.8756,-6.8756,-6.8756,-6.8756,-6.8756,-6.8702,-6.879,-6.8755,-6.8839,-6.8821,-6.8873,-6.888,-6.8885,-6.888,-6.8938,-6.8965,-6.8938,-6.8918,-6.8942,-6.897,-6.8957,-6.8972,-6.9031,-6.9006,-6.8775,-6.874,-6.8707,-6.8684,-6.9035,-6.9035,-6.9251,-6.9253,-6.9254]},{"header":{"parameterUnit":"m.s-1","parameterCategory":1,"la1":30.2991,"la2":30.254,"lo1":-89.0895,"lo2":-89.0444,"dy":0.0017,"dx":0.0017,"nx":28,"ny":28,"refTime":"2023-10-02T09:00:00:Z","depth":0,"parameterNumber":3,"parameterNumberName":"V-component_of_WINDS"},"data":[0,0,0,0,0,0,0,0,0,0,0,0,0,0,0,0,0,0,0,0,0,0,0,0,0,0,0,0,0,0,0,0,0,0,0,0,0,0,0,0,0,0,0,0,0,0,0,0,0,0,0,0,0,0,0,0,0,0,-0.1904,-0.1904,0,-0.192,-0.192,-0.192,-0.1885,-0.1884,-0.1882,-0.1881,-0.1901,-0.1903,-0.1905,0,0,0,0,0,0,0,0,0,0,0,0,0,-0.1845,-0.1846,-0.1904,-0.1904,-0.1904,-0.192,-0.192,-0.192,-0.1885,-0.1884,-0.1882,-0.1881,-0.1901,-0.1903,-0.1905,0,0,0,0,0,0,0,0,0,0,0,0,0,-0.1867,-0.1846,-0.1904,-0.1888,-0.1887,-0.192,-0.192,-0.192,-0.1885,-0.1884,-0.1882,-0.188,-0.19,-0.1903,-0.1905,-0.1954,0,0,-0.1912,-0.1913,0,0,0,0,0,0,0,0,-0.1865,-0.1869,-0.1891,-0.189,-0.1888,-0.1898,-0.1906,-0.1932,-0.1886,-0.1886,-0.1881,-0.1879,-0.1902,-0.1904,-0.1911,-0.1955,-0.1956,-0.1913,-0.1914,-0.1915,-0.1916,0,0,0,0,0,0,0,-0.1864,-0.1868,-0.191,-0.1891,-0.189,-0.1881,-0.1883,-0.1911,-0.1904,-0.1886,-0.1883,-0.1886,-0.1901,-0.1909,-0.1911,-0.1956,-0.1912,-0.1915,-0.1916,-0.1917,-0.2042,-0.2043,0,0,0,0,0,0,-0.1864,-0.1867,-0.191,-0.1911,-0.1872,-0.1884,-0.1885,-0.1897,-0.1903,-0.1903,-0.1887,-0.1884,-0.1906,-0.1909,-0.1912,-0.1971,-0.1915,-0.1917,-0.1919,-0.204,-0.2042,-0.2044,0,0,0,0,0,0,-0.1863,-0.1868,-0.1909,-0.1888,-0.1893,-0.1887,-0.19,-0.1898,-0.1906,-0.1904,-0.1903,-0.1896,-0.1904,-0.1909,-0.1944,-0.1971,-0.1918,-0.1921,-0.2038,-0.204,-0.2043,-0.2088,0,0,0,0,0,0,-0.1861,-0.1868,-0.1887,-0.1889,-0.1894,-0.194,-0.1902,-0.19,-0.191,-0.1906,-0.1912,-0.1912,-0.1903,-0.194,-0.1946,-0.1973,-0.1922,-0.2035,-0.2039,-0.2042,-0.2085,-0.2092,-0.2099,0,0,0,0,0,-0.1859,-0.19,-0.1888,-0.1893,-0.1917,-0.1942,-0.1945,-0.1934,-0.1912,-0.1931,-0.1929,-0.1912,-0.1966,-0.1944,-0.1951,-0.1979,-0.2033,-0.2038,-0.2042,-0.2081,-0.2091,-0.2099,0,0,0,0,0,0,-0.1902,-0.19,-0.1887,-0.1928,-0.1935,-0.1936,-0.196,-0.1944,-0.1959,-0.1954,-0.194,-0.1942,-0.198,-0.1982,-0.1958,-0.2027,-0.1996,-0.2002,-0.2024,-0.2033,-0.2041,-0.204,-0.1924,0,0,0,0,0,-0.1916,-0.1936,-0.1933,-0.197,-0.1974,-0.1966,-0.1977,-0.1967,-0.1974,-0.1978,-0.1979,-0.1987,-0.2006,-0.202,-0.2037,-0.2083,-0.2085,-0.2106,-0.2113,-0.2119,-0.2125,-0.215,-0.216,-0.2058,-0.2058,-0.2058,0,0,-0.1947,-0.1947,-0.1961,-0.1979,-0.1983,-0.2005,-0.1969,-0.1994,-0.201,-0.1982,-0.2015,-0.2016,-0.2024,-0.2066,-0.2084,-0.2069,-0.2153,-0.2125,-0.2129,-0.2132,-0.2156,-0.2165,-0.2174,-0.2061,-0.206,-0.206,0,0,-0.2013,-0.2015,-0.2046,-0.205,-0.2057,-0.2051,-0.2058,-0.206,-0.2059,-0.2092,-0.2071,-0.209,-0.2123,-0.213,-0.2138,-0.2204,-0.2189,-0.221,-0.225,-0.2274,-0.2282,-0.2289,-0.2314,-0.2323,-0.2215,-0.2215,-0.2215,0,-0.205,-0.2081,-0.2064,-0.209,-0.2099,-0.2072,-0.2104,-0.2109,-0.2121,-0.2128,-0.211,-0.2151,-0.2155,-0.2197,-0.2213,-0.222,-0.2229,-0.2211,-0.2282,-0.2289,-0.2296,-0.2319,-0.2328,-0.2218,-0.2218,-0.2217,-0.2217,0,-0.2127,-0.2148,-0.2173,-0.2184,-0.2195,-0.2224,-0.2212,-0.2225,-0.2214,-0.221,-0.2243,-0.2246,-0.2264,-0.2272,-0.2262,-0.2313,-0.2304,-0.2284,-0.2254,-0.2308,-0.233,-0.2339,-0.2222,-0.2221,-0.222,-0.2219,0,0,-0.2224,-0.2223,-0.2233,-0.2237,-0.2241,-0.2258,-0.2285,-0.23,-0.2313,-0.2321,-0.2344,-0.2371,-0.2353,-0.2362,-0.2351,-0.2373,-0.2426,-0.235,-0.235,-0.2366,-0.2484,-0.2501,-0.2511,-0.2414,-0.2416,-0.2417,-0.2484,0,-0.2291,-0.2337,-0.2322,-0.2369,-0.2389,-0.2362,-0.2385,-0.2391,-0.2387,-0.2404,-0.24,-0.242,-0.2393,-0.2398,-0.2418,-0.2415,-0.245,-0.241,-0.2438,-0.2439,-0.2439,-0.2523,-0.2541,-0.2604,-0.2492,-0.2494,-0.2495,0,-0.2376,-0.2386,-0.2435,-0.2434,-0.2442,-0.2463,-0.2476,-0.2492,-0.2497,-0.2493,-0.2501,-0.2486,-0.2513,-0.248,-0.2518,-0.2491,-0.2501,-0.2501,-0.2503,-0.2508,-0.2472,-0.2532,-0.2623,-0.2634,-0.2508,-0.2507,-0.2506,0,-0.2444,-0.2469,-0.2502,-0.2506,-0.2506,-0.2522,-0.2523,-0.2525,-0.2535,-0.2546,-0.2553,-0.2567,-0.2575,-0.2587,-0.2576,-0.2553,-0.2616,-0.2582,-0.2614,-0.2615,-0.2632,-0.2631,-0.2729,-0.2634,-0.2634,-0.2634,-0.2633,0,-0.2521,-0.2553,-0.2533,-0.2553,-0.2587,-0.2569,-0.2603,-0.2601,-0.2604,-0.2624,-0.26,-0.262,-0.2602,-0.262,-0.2611,-0.2645,-0.2648,-0.2647,-0.2644,-0.265,-0.2651,-0.2659,-0.2655,-0.2636,-0.2635,-0.2635,-0.2635,0,-0.2605,-0.2592,-0.2626,-0.2622,-0.2621,-0.2647,-0.2644,-0.2663,-0.2656,-0.2681,-0.2686,-0.2676,-0.2696,-0.2684,-0.2705,-0.2699,-0.2743,-0.2733,-0.2741,-0.274,-0.2773,-0.2771,-0.2882,-0.2896,-0.279,-0.2791,-0.2791,0,-0.2657,-0.268,-0.2678,-0.2688,-0.269,-0.2708,-0.2718,-0.27,-0.2711,-0.2717,-0.2735,-0.2752,-0.2766,-0.2798,-0.2793,-0.2809,-0.2801,-0.2838,-0.2804,-0.2808,-0.2804,-0.2804,-0.2806,-0.2847,-0.2848,-0.2849,-0.285,0,-0.2751,-0.2743,-0.2757,-0.2768,-0.2779,-0.2788,-0.2795,-0.2805,-0.2787,-0.28,-0.2819,-0.2829,-0.2849,-0.2867,-0.2879,-0.2881,-0.2863,-0.286,-0.2869,-0.2876,-0.2881,-0.2881,-0.2763,-0.2859,-0.2858,-0.2857,-0.2857,-0.2856,-0.2821,-0.2841,-0.2841,-0.2858,-0.286,-0.2866,-0.2884,-0.2878,-0.2893,-0.2907,-0.2895,-0.2918,-0.2921,-0.2936,-0.2939,-0.2958,-0.2943,-0.2955,-0.2959,-0.2962,-0.2968,-0.2875,-0.296,-0.2959,-0.2959,-0.2959,-0.2959,0,-0.2915,-0.2914,-0.2929,-0.2938,-0.295,-0.2929,-0.2935,-0.2948,-0.2967,-0.2971,-0.2984,-0.3005,-0.3022,-0.3017,-0.3032,-0.3047,-0.3039,-0.3052,-0.3052,-0.3053,-0.2979,-0.2971,-0.3058,-0.3058,-0.3058,-0.3058,-0.3058,-0.3058,-0.2966,-0.2998,-0.299,-0.3022,-0.302,-0.3042,-0.3047,-0.3053,-0.3055,-0.308,-0.3093,-0.3089,-0.3089,-0.3104,-0.3118,-0.3116,-0.3124,-0.314,-0.3135,-0.3068,-0.3058,-0.3049,-0.3041,-0.3141,-0.3141,-0.3208,-0.3208,-0.3209]}]]